Weather in Gornostayivka

Russia / Republic of Crimea     45°16′40″N   36°11′10″E
temp.,
°C
wind,
m/s
gust,
m/s
humid.,
%
clouds,
%
prec.,
mm/h
press.,
hPa
HPBL,
m
1 march, mon
mon100:00+3nw359389 0.1 1023288
03:00+3nw239194 0.3 102386
06:00+3wnw3591100 0.1 1024379
09:00+3wnw3583100 0.2 1025468
12:00+5nw346698 0.1 1026895
15:00+4nnw337898 0.2 1026552
18:00+4nne458295 0.2 1027460
21:00+2nne348398 0.2 1028227
2 march, tue
tue200:00+1n35888 0.0 1029126
03:000n23904 0.0 103060
06:000nnw22910 0.0 102937
09:00+3nw23770 0.0 1030245
12:00+6nw44580 0.0 10301052
15:00+6wnw565619 0.0 10281053
18:00+5wsw68679 0.0 1026541
21:00+4w6116946 0.0 1025540
3 march, wed
wed300:00+2w6117486 0.0 1023369
03:00+2wsw5137743 0.0 1022495
06:00+4w8138479 0.1 1020806
09:00+3nw7118488 0.1 1022805
12:00+6nnw8106575 0.3 10231264
15:00+6nnw796272 0.3 10241043
18:00+4nnw48650 0.0 1026721
21:00+2wnw23820 0.0 102862
4 march, thu
thu400:00+2wnw22810 0.0 102828
03:00+1w22810 0.0 102826
06:000w22800 0.0 102728
09:00+4sw23590 0.0 1027179
12:00+8sw56520 0.0 10261245
15:00+8sw78573 0.0 10241091
18:00+6sw69720 0.0 1022771
21:00+4sw611800 0.0 1021495
5 march, fri
fri500:00+4ssw611780 0.0 1021380
03:00+3ssw612814 0.0 1020414
06:00+3ssw611850 0.0 1019345
09:00+6ssw811740 0.0 1019637
12:00+8ssw912670 0.0 1018782
15:00+9ssw1013690 0.0 1017744
18:00+7ssw9147567 0.0 1016631
21:00+6ssw8157670 0.0 1016560